User: anonymous   Login
Location: Caltech
(34.1382°N, 118.1253°W)
Time: 20:36:05
(UTC-08:00)
Language:

COSMOS 2428 - Orbit

View from above orbital plane
View from above orbital plane
View from above satellite
View from above satellite

Ground track
Ground track

The orbit data is extracted from the following two-line orbital elements,

1 31792U 07029A   16337.86472213 -.00000240  00000-0 -10423-3 0  9994
2 31792  70.9191 104.3018 0009991 229.0059 131.0198 14.12278047486358
Epoch (UTC): 02 December 2016 20:45:11
Eccentricity: 0.0009991
inclination: 70.9191°
perigee height: 844 km
apogee height: 859 km
right ascension of ascending node: 104.3018°
argument of perigee: 229.0059°
revolutions per day: 14.12278047
mean anomaly at epoch: 131.0198°
orbit number at epoch: 48635

The dashed part of the orbit path shows where the satellite is in the earth's shadow,  

DLR